| time (UTC) | temp F | wind direction | speed MPH | gust MPH | rain 1hr in | rain 24hr in | rain mn in | humidity % | barometer mb |
| 20260506230410 | 55 | 243 | 0.0 | 3.0 | 0.00 | 0.00 | 0.00 | 86 | 1015.3 |
| 20260506224907 | 55 | 238 | 1.0 | 4.0 | 0.00 | 0.00 | 0.00 | 86 | 1015.3 |
| 20260506223406 | 55 | 292 | 1.0 | 4.0 | 0.00 | 0.00 | 0.00 | 88 | 1015.3 |
| 20260506221904 | 54 | 232 | 2.0 | 4.0 | 0.00 | 0.00 | 0.00 | 87 | 1015.4 |
| 20260506220354 | 54 | 219 | 1.0 | 4.0 | 0.00 | 0.00 | 0.00 | 87 | 1015.4 |
| 20260506214837 | 55 | 227 | 2.0 | 5.0 | 0.00 | 0.00 | 0.00 | 89 | 1015.5 |
| 20260506213338 | 54 | 221 | 2.0 | 7.0 | 0.00 | 0.00 | 0.00 | 88 | 1015.5 |
| 20260506211815 | 54 | 308 | 1.0 | 4.0 | 0.00 | 0.00 | 0.00 | 89 | 1015.5 |
| 20260506210312 | 54 | 234 | 0.0 | 4.0 | 0.00 | 0.00 | 0.00 | 90 | 1015.5 |
| 20260506204812 | 54 | 232 | 1.0 | 4.0 | 0.00 | 0.00 | 0.00 | 88 | 1015.5 |
| 20260506203300 | 54 | 273 | 3.0 | 9.0 | 0.00 | 0.00 | 0.00 | 87 | 1015.4 |
| 20260506201742 | 54 | 201 | 4.0 | 9.0 | 0.00 | 0.00 | 0.00 | 85 | 1015.4 |
| 20260506200229 | 54 | 215 | 2.0 | 7.0 | 0.00 | 0.00 | 0.00 | 87 | 1015.1 |
| 20260506194728 | 54 | 206 | 2.0 | 8.0 | 0.00 | 0.00 | 0.00 | 88 | 1015.2 |
| 20260506193218 | 54 | 95 | 3.0 | 9.0 | 0.00 | 0.00 | 0.00 | 88 | 1015.2 |
| 20260506191653 | 54 | 96 | 4.0 | 14.0 | 0.00 | 0.00 | 0.00 | 88 | 1015.0 |
| 20260506190155 | 54 | 68 | 2.0 | 8.0 | 0.00 | 0.00 | 0.00 | 90 | 1015.0 |
| 20260506184651 | 53 | 127 | 1.0 | 7.0 | 0.00 | 0.00 | 0.00 | 90 | 1015.0 |
| 20260506183149 | 53 | 154 | 3.0 | 11.0 | 0.00 | 0.00 | 0.00 | 90 | 1014.9 |
| 20260506181651 | 53 | 90 | 3.0 | 10.0 | 0.00 | 0.00 | 0.00 | 90 | 1014.9 |
| 20260506180128 | 53 | 170 | 4.0 | 12.0 | 0.00 | 0.00 | 0.00 | 90 | 1014.8 |
| 20260506174628 | 53 | 188 | 3.0 | 8.0 | 0.00 | 0.00 | 0.00 | 90 | 1014.8 |
| 20260506173125 | 53 | 105 | 4.0 | 11.0 | 0.00 | 0.00 | 0.00 | 90 | 1014.8 |
| 20260506171622 | 53 | 202 | 3.0 | 11.0 | 0.00 | 0.00 | 0.00 | 90 | 1014.3 |
| 20260506170121 | 53 | 112 | 3.0 | 11.0 | 0.00 | 0.00 | 0.00 | 90 | 1014.5 |
| 20260506164615 | 53 | 202 | 1.0 | 7.0 | 0.00 | 0.00 | 0.00 | 90 | 1014.5 |
| 20260506163058 | 53 | 157 | 2.0 | 10.0 | 0.00 | 0.00 | 0.00 | 90 | 1014.5 |
| 20260506161545 | 53 | 157 | 4.0 | 11.0 | 0.00 | 0.00 | 0.00 | 90 | 1014.8 |
| 20260506160043 | 53 | 198 | 2.0 | 9.0 | 0.00 | 0.00 | 0.00 | 90 | 1014.4 |
| 20260506154545 | 53 | 171 | 4.0 | 10.0 | 0.00 | 0.00 | 0.00 | 90 | 1014.4 |
| 20260506153041 | 53 | 165 | 4.0 | 11.0 | 0.00 | 0.00 | 0.00 | 90 | 1014.0 |
| 20260506151540 | 53 | 155 | 4.0 | 13.0 | 0.00 | 0.00 | 0.00 | 90 | 1013.9 |
| 20260506150038 | 53 | 190 | 3.0 | 8.0 | 0.00 | 0.00 | 0.00 | 90 | 1014.1 |
| 20260506144531 | 52 | 106 | 2.0 | 9.0 | 0.00 | 0.00 | 0.00 | 90 | 1014.2 |
| 20260506143027 | 52 | 144 | 3.0 | 10.0 | 0.00 | 0.00 | 0.00 | 90 | 1013.9 |
| 20260506141510 | 52 | 86 | 2.0 | 7.0 | 0.00 | 0.00 | 0.00 | 89 | 1013.9 |
| 20260506140000 | 51 | 125 | 2.0 | 7.0 | 0.00 | 0.00 | 0.00 | 88 | 1013.8 |
| 20260506134452 | 51 | 134 | 2.0 | 4.0 | 0.00 | 0.00 | 0.00 | 87 | 1013.7 |
| 20260506132949 | 51 | 114 | 0.0 | 6.0 | 0.00 | 0.00 | 0.00 | 87 | 1013.7 |
| 20260506131451 | 51 | 98 | 0.0 | 1.0 | 0.00 | 0.00 | 0.00 | 87 | 1013.9 |
| 20260506125943 | 51 | 98 | 0.0 | 0.0 | 0.00 | 0.00 | 0.00 | 87 | 1013.7 |
| 20260506124414 | 51 | 98 | 0.0 | 2.0 | 0.00 | 0.00 | 0.00 | 87 | 1013.4 |
| 20260506122914 | 51 | 98 | 0.0 | 3.0 | 0.00 | 0.00 | 0.00 | 87 | 1013.5 |
| 20260506121414 | 51 | 99 | 0.0 | 3.0 | 0.00 | 0.00 | 0.00 | 87 | 1013.3 |
| 20260506115856 | 51 | 99 | 1.0 | 3.0 | 0.00 | 0.00 | 0.00 | 87 | 1013.2 |
| 20260506114351 | 50 | 76 | 0.0 | 0.0 | 0.00 | 0.00 | 0.00 | 87 | 1013.3 |
| 20260506112851 | 50 | 76 | 0.0 | 0.0 | 0.00 | 0.00 | 0.00 | 87 | 1013.1 |
| 20260506111350 | 49 | 76 | 0.0 | 0.0 | 0.00 | 0.00 | 0.00 | 87 | 1012.9 |
| 20260506105838 | 48 | 76 | 0.0 | 0.0 | 0.00 | 0.00 | 0.00 | 88 | 1012.8 |
| 20260506104338 | 48 | 76 | 0.0 | 0.0 | 0.00 | 0.00 | 0.00 | 88 | 1012.5 |
| 20260506102839 | 48 | 76 | 0.0 | 2.0 | 0.00 | 0.00 | 0.00 | 89 | 1012.5 |
| 20260506101338 | 48 | 76 | 0.0 | 2.0 | 0.00 | 0.00 | 0.00 | 89 | 1012.4 |
| 20260506095826 | 48 | 76 | 0.0 | 2.0 | 0.00 | 0.00 | 0.00 | 90 | 1012.3 |
| 20260506094321 | 48 | 76 | 0.0 | 3.0 | 0.00 | 0.00 | 0.00 | 90 | 1012.2 |
| 20260506092820 | 48 | 76 | 1.0 | 4.0 | 0.00 | 0.00 | 0.00 | 90 | 1012.2 |
| 20260506091320 | 48 | 64 | 0.0 | 2.0 | 0.00 | 0.00 | 0.00 | 90 | 1012.1 |
| 20260506085822 | 49 | 64 | 0.0 | 2.0 | 0.00 | 0.00 | 0.00 | 90 | 1012.2 |
| 20260506084317 | 49 | 73 | 0.0 | 4.0 | 0.00 | 0.00 | 0.00 | 90 | 1012.1 |
| 20260506082814 | 49 | 45 | 1.0 | 4.0 | 0.00 | 0.00 | 0.00 | 90 | 1012.0 |
| 20260506081309 | 49 | 86 | 0.0 | 4.0 | 0.00 | 0.00 | 0.00 | 91 | 1011.8 |
| 20260506072807 | 50 | 116 | 1.0 | 4.0 | 0.00 | 0.00 | 0.00 | 91 | 1011.4 |
| 20260506071308 | 50 | 50 | 1.0 | 5.0 | 0.00 | 0.00 | 0.00 | 91 | 1011.3 |
| 20260506061216 | 52 | 275 | 1.0 | 4.0 | 0.00 | 0.00 | 0.00 | 90 | 1011.1 |
| 20260506051147 | 53 | 49 | 3.0 | 9.0 | 0.00 | 0.00 | 0.00 | 90 | 1010.6 |
| 20260506044117 | 54 | 79 | 1.0 | 4.0 | 0.00 | 0.00 | 0.00 | 86 | 1010.2 |
| 20260506042619 | 54 | 88 | 0.0 | 4.0 | 0.00 | 0.00 | 0.00 | 85 | 1010.1 |
| 20260506041105 | 55 | 90 | 0.0 | 0.0 | 0.00 | 0.00 | 0.00 | 84 | 1009.9 |
| 20260506035605 | 56 | 90 | 0.0 | 2.0 | 0.00 | 0.00 | 0.00 | 83 | 1009.8 |
| 20260506034101 | 56 | 90 | 0.0 | 4.0 | 0.00 | 0.00 | 0.00 | 84 | 1009.8 |
| 20260506032559 | 56 | 91 | 2.0 | 4.0 | 0.00 | 0.00 | 0.00 | 83 | 1009.7 |
| 20260506031101 | 57 | 52 | 1.0 | 5.0 | 0.00 | 0.00 | 0.00 | 82 | 1009.7 |
| 20260506025531 | 58 | 345 | 1.0 | 6.0 | 0.00 | 0.00 | 0.00 | 81 | 1009.7 |
| 20260506024010 | 59 | 50 | 2.0 | 7.0 | 0.00 | 0.00 | 0.00 | 80 | 1009.6 |
| 20260506022501 | 60 | 59 | 1.0 | 4.0 | 0.00 | 0.00 | 0.00 | 80 | 1009.5 |
| 20260506020934 | 59 | 290 | 1.0 | 5.0 | 0.00 | 0.00 | 0.00 | 81 | 1009.6 |
| 20260506015429 | 60 | 299 | 1.0 | 4.0 | 0.00 | 0.00 | 0.00 | 79 | 1009.6 |
| 20260506013930 | 60 | 302 | 1.0 | 5.0 | 0.00 | 0.00 | 0.00 | 78 | 1009.6 |
| 20260506012428 | 61 | 307 | 3.0 | 8.0 | 0.00 | 0.00 | 0.00 | 75 | 1009.6 |
| 20260506010920 | 64 | 199 | 4.0 | 9.0 | 0.00 | 0.00 | 0.00 | 72 | 1009.6 |
| 20260506005353 | 64 | 194 | 3.0 | 8.0 | 0.00 | 0.00 | 0.00 | 73 | 1009.7 |
| 20260506003853 | 64 | 140 | 3.0 | 8.0 | 0.00 | 0.00 | 0.00 | 73 | 1009.7 |
| 20260506002354 | 64 | 116 | 4.0 | 10.0 | 0.00 | 0.00 | 0.00 | 73 | 1009.7 |
| 20260506000847 | 63 | 166 | 5.0 | 11.0 | 0.00 | 0.00 | 0.00 | 74 | 1009.8 |
| 20260505235338 | 63 | 87 | 4.0 | 9.0 | 0.00 | 0.00 | 0.00 | 73 | 1009.9 |
| 20260505233836 | 63 | 119 | 3.0 | 10.0 | 0.00 | 0.00 | 0.00 | 73 | 1010.1 |
| 20260505232333 | 62 | 140 | 6.0 | 11.0 | 0.00 | 0.00 | 0.00 | 74 | 1010.2 |